Theta_e
299 300 298 296 293 289 287 287 286 286 285 284 283 283 282 282 282 281 281 280 280 279 279 278 278 277 277 277 277 276 276 276 277 277 276 276 275 275 274 273 273 274 273
296 295 292 289 287 286 286 286 285 285 284 283 282 282 281 281 281 280 280 279 279 279 278 277 277 277 276 276 276 276 276 277 277 276 276 275 275 275 274 273 273 273 272
291 289 287 286 286 286 285 284 284 284 283 282 282 281 281 280 280 279 279 279 278 278 277 276 276 276 276 276 276 276 276 277 277 276 276 275 275 274 273 273 273 272 272
288 287 286 285 285 285 284 284 283 283 283 282 281 281 281 280 279 279 278 278 277 277 277 276 276 276 276 276 276 276 277 277 276 276 275 275 274 273 273 273 273 272 271
286 286 285 285 284 284 283 283 283 282 282 282 281 281 280 280 280 278 277 277 277 277 276 276 276 275 275 276 276 276 277 277 276 275 275 274 273 272 272 273 271 270 270
286 285 284 284 283 283 283 282 282 282 281 281 281 280 280 279 280 279 278 277 276 276 276 275 275 275 274 274 276 276 277 276 276 274 273 272 272 272 273 271 270 269 269
285 284 284 283 283 283 282 282 281 281 281 280 280 279 279 279 279 279 278 277 276 276 275 275 275 275 274 274 275 276 276 275 274 273 272 272 272 271 270 269 268 268 267
285 284 283 283 283 282 282 281 281 280 280 280 279 279 278 278 278 278 278 277 277 276 276 275 275 274 274 275 276 276 275 273 272 271 272 272 270 269 268 267 266 264 264
284 284 283 283 283 282 281 281 280 280 279 279 279 278 277 277 276 277 277 277 276 276 275 275 274 274 274 275 276 274 273 271 270 271 270 268 267 266 266 265 263 263 262
285 284 284 283 282 282 281 281 280 279 279 278 277 277 277 276 276 276 277 276 276 275 275 274 274 274 275 276 275 273 270 270 270 268 265 265 263 263 263 262 262 261 261
285 284 283 283 282 282 281 280 279 279 278 277 277 277 276 276 276 275 276 276 275 275 275 274 274 273 275 274 273 270 269 270 266 264 262 262 261 261 261 261 260 260 260
284 284 283 282 281 281 280 279 278 278 278 277 277 276 275 275 275 274 274 275 275 274 274 274 273 274 273 271 269 268 268 264 263 262 261 260 260 260 260 260 261 260 259
284 283 282 282 281 280 279 279 278 278 277 276 275 275 275 274 273 273 272 273 274 274 274 274 273 271 270 268 266 265 264 262 261 260 259 259 260 260 260 260 260 259 259
285 282 281 281 279 278 279 279 278 277 276 275 275 274 273 273 274 274 274 274 274 274 273 273 271 269 268 265 264 263 262 261 260 259 259 259 260 259 259 259 258 258 257
283 282 280 279 278 279 278 277 277 276 275 274 274 274 274 274 274 274 275 274 274 272 271 270 270 268 266 264 263 262 261 260 260 259 259 259 259 258 259 258 257 257 257
282 281 280 279 278 278 277 277 276 275 275 275 275 274 273 272 272 273 273 273 273 271 270 268 266 265 263 261 260 260 260 260 260 259 259 259 258 257 257 257 256 256 257
282 281 280 279 278 278 277 276 275 273 273 272 272 271 271 271 271 271 271 272 270 269 267 265 264 263 261 261 260 259 259 259 259 259 259 258 257 257 256 255 256 256 257
281 280 279 278 278 276 275 274 273 272 272 271 270 271 270 269 269 270 270 269 267 266 265 264 263 261 261 260 260 259 259 259 259 259 259 259 258 256 255 255 256 256 257
280 279 278 277 276 275 274 273 272 271 271 270 270 270 268 268 267 267 266 265 264 264 264 263 262 260 260 259 259 259 258 259 259 259 259 259 258 256 256 256 255 256 256
279 277 276 275 274 274 273 272 271 270 270 270 268 267 267 267 267 266 264 264 264 263 262 261 261 260 259 259 259 258 258 259 259 259 259 259 259 257 256 256 256 256 256
277 276 275 274 273 272 271 271 270 270 269 268 267 266 267 266 264 264 264 264 264 263 261 260 260 260 259 259 259 258 258 259 259 259 259 259 258 258 257 257 257 256 256
276 275 273 272 271 271 270 270 269 268 267 267 266 266 264 264 264 264 264 263 262 261 260 259 259 259 259 258 258 258 258 259 259 259 259 259 259 259 259 258 258 257 257
274 273 272 271 270 270 270 268 268 267 266 266 265 265 265 265 264 263 262 262 261 260 260 259 259 259 259 259 259 258 258 259 259 258 258 259 259 259 259 259 258 258 258
273 272 271 270 270 269 268 268 267 266 266 265 264 264 264 264 263 262 262 261 260 260 260 260 259 259 259 259 259 259 259 259 259 259 259 259 259 260 259 259 260 260 260
272 271 271 270 269 268 267 267 266 266 265 265 265 264 263 262 262 262 261 261 260 260 260 260 260 260 260 260 260 260 260 259 259 259 259 259 259 260 260 259 260 261 261
272 271 270 269 268 267 267 266 266 265 265 264 263 262 262 261 261 261 261 261 260 261 261 261 261 260 260 260 260 260 260 260 260 260 259 259 259 260 259 259 260 260 261
Wind_Speed
24 23 23 21 18 18 17 16 14 15 13 12 11 11 10 9 8 8 9 8 8 8 8 8 7 6 8 9 7 11 11 9 8 20 22 25 25 26 26 27 26 21 22
22 23 22 20 19 18 16 14 13 13 12 11 10 10 9 8 7 7 6 6 6 6 7 7 7 5 9 10 10 12 14 13 14 17 24 24 25 26 25 25 19 19 26
23 23 21 20 18 16 15 14 13 13 12 11 9 8 7 7 5 5 4 5 5 4 6 7 8 8 10 11 11 14 14 15 15 18 24 23 22 23 25 22 23 27 26
22 21 21 18 16 15 14 13 12 10 10 9 7 6 5 5 3 3 3 3 3 4 6 8 9 8 9 13 11 15 16 15 15 20 23 23 24 25 25 28 28 30 33
21 20 19 17 16 15 13 11 10 9 8 6 6 4 3 2 1 2 2 3 4 4 5 7 8 7 9 12 11 16 19 14 19 21 22 24 27 29 29 26 32 36 32
21 19 18 16 15 13 11 10 8 7 6 5 4 4 2 1 1 3 3 4 5 6 6 9 10 9 14 14 12 13 15 18 19 21 21 24 26 28 24 31 33 31 18
19 18 17 16 14 12 11 9 7 6 5 5 4 3 3 3 4 5 6 6 7 8 8 11 11 13 17 16 17 15 14 14 17 22 22 23 24 27 32 31 28 27 28
19 18 16 14 13 11 10 8 6 7 6 5 4 5 5 6 6 6 6 10 10 10 10 12 13 17 17 16 19 15 13 21 26 23 20 23 30 33 28 27 29 31 28
20 18 16 15 13 12 9 8 8 6 6 5 5 7 7 7 7 8 7 11 13 12 13 12 14 17 15 17 19 15 23 28 22 17 22 27 25 23 23 25 24 27 29
21 19 16 14 12 10 9 9 7 6 5 6 7 6 7 8 8 9 8 12 13 15 17 15 16 14 16 17 18 22 28 25 23 30 33 29 24 23 19 18 21 22 24
18 16 15 14 12 11 10 8 7 6 6 5 6 8 9 10 10 9 8 11 13 16 16 17 20 17 16 17 19 23 21 24 27 28 27 24 19 19 20 21 21 21 25
17 17 16 15 12 10 9 8 6 5 5 6 8 9 10 10 11 12 12 12 13 15 17 17 17 14 16 16 21 20 19 22 26 26 24 20 21 25 29 29 28 28 27
17 18 16 14 12 11 10 7 5 5 7 7 9 11 12 12 13 14 14 15 14 13 16 13 13 14 18 23 21 16 21 22 22 22 21 22 26 29 31 31 32 32 30
20 19 16 14 13 12 7 5 5 5 6 7 9 11 12 13 12 13 13 12 15 16 18 16 13 18 22 20 22 21 20 18 18 19 23 27 30 32 32 28 27 30 30
19 17 15 13 11 8 6 5 5 6 7 8 7 8 12 15 14 12 15 17 18 7 9 15 21 25 25 26 25 23 21 20 21 23 26 29 31 30 32 30 27 28 24
19 17 13 11 9 6 4 5 5 4 3 4 5 7 9 9 12 14 14 14 15 11 17 20 23 23 24 23 23 24 22 21 22 24 25 26 28 28 30 34 28 24 25
12 11 9 8 6 5 5 5 5 3 4 5 5 5 8 11 12 14 14 13 9 14 17 20 22 24 24 24 23 23 23 22 23 24 25 26 27 29 28 29 28 25 27
8 6 5 4 5 5 4 4 5 5 5 5 7 11 9 11 12 13 12 13 17 17 19 20 22 23 23 24 24 23 22 23 24 25 25 26 27 27 27 26 27 25 27
6 5 4 4 4 4 4 4 4 4 6 8 12 10 10 11 11 10 11 15 15 17 18 19 21 23 24 24 24 23 22 23 24 25 26 26 27 27 29 28 27 30 28
6 5 3 3 3 3 3 2 3 5 8 9 10 11 13 15 15 17 16 16 17 19 20 22 24 25 25 25 25 24 23 22 24 25 26 27 28 28 28 29 29 27 29
5 4 3 2 1 1 1 2 4 6 7 8 10 11 11 12 14 14 16 18 20 22 23 23 25 26 26 25 24 24 23 24 24 25 26 28 29 31 31 31 32 31 29
4 3 3 3 2 2 2 3 4 6 7 9 11 12 11 13 14 16 18 19 20 21 21 23 25 25 25 24 23 23 23 24 25 24 27 29 30 31 32 33 34 33 32
4 4 4 4 4 3 4 5 6 7 8 9 12 14 15 17 18 20 21 22 22 23 22 23 24 25 22 21 20 21 23 24 24 25 27 29 31 31 31 33 34 33 33
7 7 7 6 4 4 4 4 5 7 9 11 13 15 18 20 22 23 24 24 23 23 21 21 21 21 22 21 20 20 22 23 23 25 25 27 29 30 31 33 34 34 32
9 8 6 5 4 4 4 6 7 10 12 14 17 19 21 22 24 24 24 23 22 21 21 20 20 20 21 21 22 22 22 22 23 24 24 24 27 30 31 30 31 30 30
9 8 6 5 5 5 6 8 10 13 16 18 20 22 23 24 24 24 24 23 23 23 24 24 24 23 24 24 23 23 23 23 24 24 26 27 28 30 28 28 32 30 29
Wind_Direction
152 142 142 139 134 140 139 136 140 136 131 129 126 117 108 105 97 85 82 79 73 75 67 46 41 32 26 22 17 9 360 340 282 306 311 319 326 327 330 333 328 329 320
141 139 137 139 142 144 136 140 143 136 134 133 125 117 106 99 95 85 80 76 66 62 49 36 30 21 17 13 3 356 351 342 306 307 314 320 323 324 323 321 320 321 320
144 141 141 143 147 141 143 148 146 143 139 133 128 119 110 103 95 86 68 53 49 48 33 22 15 7 5 360 357 346 349 331 319 313 313 317 317 324 324 326 323 323 321
147 146 145 148 148 147 154 151 147 146 142 140 136 126 114 100 87 73 51 37 30 24 10 6 1 352 354 348 342 342 334 328 329 324 318 319 324 328 328 328 325 324 320
153 153 152 152 154 156 157 151 149 150 147 152 155 138 127 90 65 73 33 10 358 349 341 347 349 349 345 338 325 334 334 337 334 328 323 323 327 333 331 328 321 320 320
160 158 157 158 159 158 155 155 156 156 161 172 180 195 184 209 66 340 347 335 330 326 330 337 344 347 339 340 328 324 325 334 333 329 323 320 322 320 326 324 320 322 320
164 164 165 165 162 162 167 164 168 174 187 199 208 228 241 262 278 299 313 320 321 322 326 338 341 337 338 340 338 319 309 322 326 328 320 319 319 327 323 321 318 313 309
171 172 171 169 173 172 176 176 181 199 210 223 237 249 258 259 255 274 291 304 319 326 325 330 327 330 335 330 322 315 319 327 334 329 323 320 321 322 323 320 318 315 311
178 178 179 182 183 184 184 192 203 216 225 239 257 257 258 262 266 273 287 304 314 313 317 318 321 330 327 324 326 330 328 329 332 321 317 319 322 324 328 326 330 329 322
185 186 186 190 193 192 200 208 214 225 241 245 248 264 276 285 283 280 291 300 305 311 315 315 319 319 322 325 335 332 332 331 321 320 323 331 337 339 334 332 324 318 316
186 185 190 196 201 206 207 216 225 228 234 247 269 283 288 287 291 288 299 306 302 305 308 309 320 325 325 326 325 324 328 322 319 329 336 338 337 335 333 331 326 315 308
185 190 194 198 204 213 215 213 221 238 268 283 286 287 289 296 304 304 307 303 299 295 301 309 315 319 319 325 327 330 328 325 334 339 340 337 336 337 337 336 335 327 312
188 197 198 200 210 212 212 218 242 275 277 282 291 302 313 310 306 306 303 305 299 293 303 303 296 309 319 324 328 334 329 340 342 340 335 332 333 335 336 336 334 329 315
199 197 198 202 203 208 219 245 260 271 288 302 306 309 316 319 326 324 322 325 318 303 290 288 300 320 325 329 335 339 341 343 342 338 335 337 337 337 333 332 321 321 315
196 197 199 201 206 220 231 249 279 296 305 310 318 330 330 324 325 323 317 318 322 307 302 310 322 327 329 333 335 337 340 343 343 341 339 337 336 334 330 330 323 318 310
191 193 198 203 212 225 250 276 293 304 318 302 296 307 311 316 320 322 322 319 320 304 315 326 329 332 332 333 333 332 334 338 338 336 334 335 332 328 324 326 321 314 310
196 193 202 214 230 252 263 275 287 283 277 278 292 310 338 330 327 326 326 321 324 319 326 329 329 330 329 328 327 326 324 327 329 331 331 332 331 327 322 318 318 315 315
187 193 204 222 234 241 258 270 274 280 299 320 319 319 323 331 329 331 333 316 320 325 333 330 327 327 325 323 321 319 318 321 324 327 328 328 328 327 320 316 315 312 314
193 200 211 214 214 227 238 257 276 311 330 328 325 326 330 333 334 337 338 337 335 331 330 324 324 323 321 320 319 316 314 316 320 323 324 325 327 328 321 317 315 314 314
191 188 179 188 206 230 255 290 329 334 326 325 330 335 351 344 336 336 336 335 334 332 329 326 324 322 322 320 317 315 312 314 317 321 323 324 326 325 320 319 318 313 313
165 164 179 191 203 187 11 348 331 323 324 336 345 347 346 329 328 332 332 331 328 324 322 320 318 318 318 316 315 313 309 310 313 318 321 321 322 322 324 324 320 319 313
154 149 140 124 94 77 59 355 346 351 348 344 340 340 338 334 333 330 327 325 323 319 318 315 315 317 318 315 313 310 307 307 310 316 316 316 317 320 323 324 324 322 318
127 111 104 101 89 65 24 8 1 351 344 341 337 335 332 328 327 327 326 325 322 321 321 318 316 316 316 312 309 308 305 307 310 311 312 311 312 315 319 321 320 318 318
111 111 105 94 63 43 28 7 355 345 340 336 331 328 328 327 327 326 324 323 322 322 321 319 317 317 317 316 313 309 307 307 306 306 308 306 307 311 314 316 319 321 319
101 97 90 84 71 39 19 3 350 341 336 331 328 326 326 324 322 322 323 324 323 322 323 323 324 323 320 316 315 313 309 305 302 303 303 305 305 308 308 310 315 313 311
98 96 93 79 56 31 7 351 343 336 331 328 326 324 322 322 323 323 325 324 323 323 324 324 324 323 320 318 317 313 308 306 306 307 307 305 303 305 303 296 303 306 306